Regional Weather Roundup
Issued by NWS Nashville, TN

Current Version | Previous Version | Text Only | Print | Product List | Glossary Off
Versions: 1 2 3 4 5 6 7 8 9 10 11 12 13 14 15 16 17 18 19 20 21 22 23 24 25 26 27 28 29 30 31 32 33 34 35 36 37 38 39 40 41 42 43 44 45 46 47 48 49 50

000
ASUS44 KOHX 290215
RWROHX
MIDDLE TENNESSEE HOURLY WEATHER ROUNDUP
NATIONAL WEATHER SERVICE NASHVILLE TN
900 PM CDT MON JUL 28 2014

NOTE: "FAIR" INDICATES FEW OR NO CLOUDS BELOW 12,000 FEET WITH
NO SIGNIFICANT WEATHER AND/OR OBSTRUCTIONS TO VISIBILITY.

* THESE REPORTS ARE NOT UNDER NWS QUALITY CONTROL AND MAY NOT
  REPORT WEATHER SUCH AS PRECIPITATION AND FOG.


TNZ005>011-023>034-057-059-062>066-078-080-290300
...NORTHERN MIDDLE TENNESSEE...

CITY           SKY/WX    TMP DP  RH WIND       PRES   REMARKS
CLARKSVILLE    CLEAR     71  58  63 N8        30.03R
CROSSVILLE     CLEAR     70  59  68 CALM      30.04R
DICKSON        CLEAR     70  61  73 N6        30.03R
LEBANON        MOCLDY    72  59  63 CALM      30.00R
LIVINGSTON       N/A     69  58  68 N5        30.02S
NASHVILLE      PTCLDY    75  58  55 N8        30.02R
WEST NASHVILLE   N/A     73  59  60 N7        30.01R
PORTLAND       CLEAR     70  57  64 N5        30.02R
SMYRNA         CLEAR     71  61  70 CALM      30.02R
SPARTA         CLEAR     64  63  94 CALM      30.01R
$$
TNZ056-058-060-061-075>077-079-093>097-290300
...SOUTHERN MIDDLE TENNESSEE...

CITY           SKY/WX    TMP DP  RH WIND       PRES   REMARKS
COLUMBIA       CLEAR     73  63  68 CALM      30.01R
FAYETTEVILLE   CLEAR     72  59  64 NW9       30.02R
LEWISBURG      PTCLDY    72  61  68 CALM      30.01R
MCMINNVILLE    CLEAR     70  63  78 CALM      30.02R
MURFREESBORO   CLEAR     74  59  59 NW3       30.00R
SHELBYVILLE    CLEAR     72  63  73 VRB3      30.02R
TULLAHOMA      CLEAR     68  61  77 NW5       30.03R
WINCHESTER     CLEAR     72  61  68 NW3       30.02R
$$


...KEY TO REMARKS...
VSB - VISIBILITY IN MILES
WCI - WIND CHILL INDEX
HX  - HEAT INDEX



USA.gov is the U.S. government's official web portal to all federal, state and local government web resources and services.